Wetbulb
52.91 53.44 53.81 55.88 54.99 53.28 51.34 45.20 33.14 43.96 44.80 32.74 30.45 28.31 31.89 39.64 36.33 37.37 37.05 39.03 37.22 35.07 34.90 34.16 34.33 32.69 33.47 34.44 32.68 28.28 29.72 27.72 21.86 22.89 27.83 30.78 29.95 28.31 26.78 20.44 18.53 18.52 19.49 22.26
50.92 52.23 53.26 53.58 54.84 53.41 48.96 40.60 38.22 43.66 41.97 26.63 27.06 29.52 35.45 37.66 34.64 34.82 35.61 35.76 37.53 36.81 36.21 32.57 33.16 32.52 34.78 34.47 33.11 29.63 30.19 24.71 18.14 23.60 26.60 28.09 26.04 28.20 28.56 25.57 24.33 18.16 18.65 23.60
48.98 50.18 51.67 52.54 54.56 53.97 49.12 39.80 31.77 35.84 37.29 32.59 29.43 26.77 29.96 32.20 37.40 36.47 37.72 36.51 36.99 36.13 31.53 34.99 30.69 30.26 34.15 34.80 34.01 37.62 34.91 23.80 24.52 25.24 28.42 27.28 21.94 25.12 27.63 24.66 14.96 20.54 23.92 25.63
47.40 47.96 49.21 51.79 52.60 53.35 47.44 39.89 33.94 33.85 28.20 26.93 32.35 33.82 32.90 32.80 30.74 35.63 37.68 33.54 35.63 35.86 28.57 28.16 28.90 31.39 31.75 34.49 36.20 32.55 30.50 22.68 19.22 21.35 26.91 27.41 26.43 25.01 23.95 22.88 25.21 23.74 27.66 24.51
46.82 47.18 46.96 49.27 51.49 53.18 47.91 36.43 34.76 36.41 28.06 34.41 34.05 35.65 31.37 33.66 33.63 33.40 32.75 34.01 35.91 37.12 34.35 37.25 30.83 31.45 30.86 32.64 32.44 30.20 32.12 28.11 24.30 21.07 22.34 25.00 23.21 25.96 25.51 26.50 22.09 23.72 25.16 27.52
46.91 46.78 46.47 46.48 48.41 50.11 45.62 43.39 42.47 41.32 35.95 33.16 32.82 33.16 32.20 34.95 37.14 36.31 37.26 37.39 36.67 36.50 38.62 36.16 35.80 37.39 37.78 36.25 31.76 29.40 29.34 28.58 27.24 25.24 19.39 23.47 23.95 25.68 25.92 25.55 27.02 27.37 23.86 33.18
46.12 46.68 46.24 46.11 46.04 46.69 45.65 44.51 43.29 40.19 33.09 34.16 32.97 35.62 37.25 37.34 38.04 35.97 36.48 38.43 38.10 35.53 39.23 39.92 39.87 36.75 34.36 33.34 31.62 33.56 29.01 29.69 30.05 26.58 22.33 24.04 31.76 31.32 29.35 28.66 29.93 29.75 31.02 32.45
46.00 46.15 45.89 45.41 45.77 45.02 44.91 46.77 44.98 41.69 32.98 36.29 35.65 36.30 36.94 38.71 39.79 35.02 34.16 35.65 37.06 40.21 39.89 35.36 33.91 32.67 33.32 30.29 28.42 29.59 31.84 31.13 27.83 26.29 17.16 27.33 33.25 28.79 28.30 28.48 33.31 33.22 32.55 34.89
46.38 45.89 44.96 44.16 45.14 45.18 44.00 47.10 48.66 45.02 37.31 35.14 40.14 36.89 38.50 35.16 36.25 32.83 31.93 36.69 39.45 38.30 34.67 33.80 31.55 28.65 32.80 27.63 26.23 29.15 28.97 30.63 31.98 26.73 24.77 23.72 31.84 30.14 32.61 31.22 28.58 34.86 33.63 33.77
45.82 45.52 44.61 44.04 45.03 45.51 44.10 43.88 49.00 46.02 38.22 40.13 41.33 37.53 37.32 40.67 38.05 33.94 32.28 33.26 34.44 35.68 32.48 32.47 31.67 32.17 30.48 24.67 25.19 23.58 24.67 25.05 25.97 27.71 27.19 29.44 34.83 31.01 32.07 26.79 34.09 32.18 32.65 33.99
45.92 45.16 44.09 43.22 43.43 45.01 43.66 43.41 46.87 45.75 38.53 38.95 41.94 43.46 40.47 40.54 39.30 33.03 32.55 33.90 32.82 32.38 33.62 33.87 32.26 32.73 31.35 23.29 25.31 24.17 24.45 24.32 23.41 26.63 24.79 24.31 32.42 29.77 31.39 36.22 30.91 31.51 31.18 31.16
45.45 44.80 43.66 42.71 42.83 43.72 44.32 40.28 47.35 47.17 40.81 38.66 42.56 42.76 43.60 45.29 44.65 36.13 35.91 36.25 32.83 36.67 34.44 32.89 33.15 31.94 29.18 25.10 23.36 27.18 26.41 29.41 25.76 28.76 29.03 34.10 32.81 35.02 34.54 33.49 33.98 32.70 32.16 32.34
45.02 44.42 43.28 42.60 42.12 42.73 43.01 41.08 42.62 42.72 34.30 35.77 38.01 38.44 43.36 45.13 44.44 43.78 34.77 35.83 38.20 37.59 40.19 35.30 33.27 33.00 29.86 28.04 27.10 24.54 27.03 30.74 26.14 27.55 31.32 32.43 32.79 34.76 33.59 34.15 34.09 33.95 33.95 33.78
44.84 43.93 42.66 42.12 41.75 41.29 42.33 39.28 43.07 42.00 37.46 32.49 33.78 40.97 40.65 43.72 45.26 44.10 43.87 41.14 40.92 40.41 39.52 34.04 33.07 32.78 32.23 26.88 29.37 30.38 28.03 29.72 25.06 25.77 30.69 30.85 33.79 34.18 35.74 36.43 35.60 33.94 33.07 33.89
44.46 43.41 42.56 42.24 41.69 41.24 40.24 39.29 42.10 43.31 39.51 32.32 32.45 34.74 38.58 41.40 43.13 43.20 43.07 40.98 39.20 36.25 33.45 32.45 32.41 33.07 32.85 28.70 27.18 23.62 27.51 27.30 28.89 28.50 33.95 36.54 39.33 36.36 35.93 34.69 34.65 35.21 34.20 32.81
43.75 43.28 42.74 42.24 41.27 41.74 37.73 26.17 39.30 42.95 42.51 32.89 27.08 32.76 33.24 37.95 42.41 42.01 41.22 41.16 38.49 35.93 34.57 32.91 33.55 33.89 34.45 32.31 31.33 32.05 31.48 30.99 34.80 35.23 34.06 34.23 32.22 30.75 30.97 34.09 33.72 33.59 34.60 33.69
43.74 42.85 42.47 41.59 41.24 35.37 30.57 25.45 37.65 41.60 41.37 32.02 30.91 29.48 32.39 32.97 35.19 33.31 33.69 36.41 33.11 34.25 32.98 32.38 33.36 33.17 35.09 32.53 32.82 33.91 33.42 35.71 34.27 32.86 33.35 32.65 30.23 33.92 28.36 28.20 27.79 26.81 26.37 27.50
42.49 42.02 41.56 40.45 40.13 36.87 27.62 33.46 40.74 41.49 36.88 32.56 29.98 28.44 31.35 33.56 32.96 32.42 32.80 32.27 32.63 32.11 31.91 31.41 32.26 32.18 32.53 31.77 33.66 36.40 36.73 34.59 32.04 33.07 32.22 33.86 29.00 25.46 24.35 20.60 21.86 24.76 26.12 24.52
41.12 41.15 40.31 33.72 28.93 18.98 23.76 39.14 40.86 39.20 34.77 30.41 30.19 26.33 25.27 33.17 32.39 32.33 32.11 33.03 29.41 31.91 30.99 31.30 32.91 30.76 29.74 32.56 34.25 33.24 34.57 32.17 32.51 27.18 25.41 24.49 26.08 26.06 23.15 20.91 20.95 26.84 27.50 26.25
39.77 32.01 21.14 21.02 23.48 36.51 37.61 33.60 29.22 31.23 31.55 31.66 28.71 27.07 28.14 32.77 31.66 31.41 31.37 32.21 30.12 26.31 30.19 32.05 30.45 31.31 29.90 25.37 22.89 24.56 22.58 21.14 19.10 22.26 21.27 20.79 18.17 19.26 19.91 18.67 15.04 22.88 21.73 19.38
23.58 18.20 11.67 28.61 36.68 30.88 27.89 24.14 23.30 19.01 24.93 30.10 21.87 31.92 28.49 32.83 30.35 30.67 32.33 30.21 30.20 25.03 27.22 28.79 28.05 27.76 27.22 19.96 17.61 17.32 17.22 18.12 17.25 21.61 21.59 20.20 20.16 19.11 15.67 14.61 14.79 13.48 14.32 14.21
25.94 26.79 31.65 30.81 26.40 25.31 20.76 15.39 18.44 23.51 18.63 28.43 28.56 30.63 32.40 32.03 32.94 31.01 30.54 29.91 29.66 22.80 31.49 29.07 24.33 22.77 13.07 12.15 10.68 9.69 10.72 12.03 13.13 14.40 16.21 16.11 15.87 13.36 11.00 11.21 11.87 9.74 9.27 12.15
24.59 18.59 12.31 12.55 7.88 11.61 11.30 11.92 17.13 9.92 20.93 27.89 29.68 29.09 31.39 31.16 31.96 31.65 29.34 26.12 24.95 30.99 27.66 25.68 21.84 6.81 6.10 6.49 4.90 3.99 4.85 4.92 5.84 6.84 9.10 11.60 11.54 11.88 12.06 11.60 12.28 10.73 9.01 10.64
12.07 6.83 4.53 5.57 1.26 7.23 18.38 12.71 19.46 23.00 17.99 16.88 26.25 29.19 29.60 30.96 29.65 30.61 22.65 23.44 28.91 23.52 21.99 17.11 11.61 0.64 0.12 -1.61 -0.76 3.32 0.10 1.72 2.12 4.46 6.74 8.10 9.30 8.74 8.31 8.35 8.28 9.85 9.99 10.23
8.11 7.41 2.02 1.45 6.80 6.90 12.99 13.42 14.08 24.35 26.33 28.54 29.33 28.22 29.75 26.81 24.20 27.49 26.22 22.82 21.62 21.73 15.60 5.43 1.55 -5.04 -4.33 -3.62 -1.57 0.90 2.21 0.38 -0.78 0.54 4.42 5.04 5.96 5.80 6.19 6.41 7.77 7.76 8.88 8.99
9.02 6.80 9.21 0.07 5.25 8.23 11.48 10.52 15.48 24.63 26.36 29.04 27.17 22.56 23.27 23.97 24.63 22.22 19.76 18.34 10.22 12.55 -1.81 -2.17 -3.70 -7.18 -5.85 -6.27 -2.82 0.14 1.75 3.36 2.68 1.54 0.23 0.12 2.00 2.73 1.77 1.91 4.67 6.81 7.54 8.00
12.34 11.36 -1.33 1.44 2.70 9.54 12.29 14.24 17.16 22.51 22.33 22.53 19.75 19.31 20.27 15.59 15.91 16.51 8.95 7.98 1.91 -3.79 -1.99 3.61 1.15 -1.76 -3.18 -4.20 -4.96 -3.33 -0.82 1.34 2.73 2.60 2.77 -0.99 -1.15 0.59 2.54 4.38 4.30 3.50 6.67 7.48
MSLP
1012.02 1011.91 1011.57 1011.24 1011.66 1012.89 1014.11 1015.65 1017.41 1017.81 1018.09 1018.45 1018.95 1018.94 1017.89 1016.75 1016.19 1016.09 1016.07 1016.10 1016.30 1016.59 1017.34 1018.29 1019.17 1020.07 1020.83 1021.53 1022.23 1023.35 1023.76 1024.70 1026.45 1026.71 1026.45 1026.18 1025.86 1025.56 1025.82 1026.59 1027.25 1026.90 1025.52 1020.90
1011.92 1011.66 1011.50 1011.20 1010.98 1011.74 1013.46 1015.24 1017.27 1018.17 1017.99 1018.09 1018.93 1018.57 1017.36 1016.62 1016.06 1015.72 1015.94 1015.98 1016.05 1016.37 1017.05 1018.19 1019.17 1020.31 1021.39 1021.79 1021.98 1022.67 1023.30 1024.76 1026.02 1026.39 1026.76 1026.53 1026.11 1025.61 1025.65 1026.14 1026.49 1026.22 1025.11 1020.65
1012.05 1011.74 1011.57 1011.01 1010.66 1011.03 1012.37 1014.42 1017.01 1018.29 1018.21 1017.49 1017.47 1017.84 1016.92 1016.23 1015.64 1015.37 1015.33 1015.49 1015.76 1016.64 1017.54 1018.08 1019.49 1020.86 1021.78 1022.16 1022.09 1022.24 1022.96 1024.42 1025.46 1025.82 1025.52 1025.50 1026.10 1025.62 1025.63 1025.91 1026.32 1025.24 1023.17 1020.26
1011.74 1011.97 1011.40 1011.10 1010.78 1010.21 1011.25 1013.39 1014.92 1015.25 1017.07 1017.09 1016.93 1016.55 1015.92 1015.74 1015.52 1015.62 1015.30 1015.76 1015.57 1016.07 1017.89 1018.88 1019.64 1020.92 1022.12 1022.43 1022.43 1022.57 1023.33 1024.41 1025.55 1025.33 1025.01 1024.94 1024.84 1024.87 1025.18 1025.52 1024.35 1023.95 1021.21 1020.42
1011.33 1011.79 1011.38 1011.13 1010.59 1010.15 1010.20 1012.43 1013.55 1014.69 1014.69 1014.82 1016.12 1015.61 1014.74 1014.62 1014.88 1015.04 1015.21 1015.37 1015.33 1015.93 1016.70 1016.86 1018.70 1019.54 1020.85 1021.07 1022.56 1023.02 1023.09 1024.31 1025.30 1025.31 1024.85 1024.63 1024.35 1023.81 1024.11 1023.81 1023.51 1022.54 1021.17 1019.16
1010.92 1011.34 1011.01 1011.04 1010.80 1010.12 1009.86 1010.92 1012.23 1012.22 1013.36 1014.05 1014.68 1013.00 1013.44 1013.62 1014.04 1014.52 1014.10 1014.56 1015.41 1016.32 1016.46 1016.94 1017.30 1018.41 1018.75 1019.55 1021.19 1022.63 1022.82 1023.87 1025.09 1025.18 1024.73 1024.21 1023.41 1021.07 1021.51 1021.52 1021.05 1020.71 1020.09 1016.34
1010.29 1010.52 1010.52 1010.67 1010.92 1010.80 1010.76 1010.55 1010.97 1011.73 1012.23 1012.75 1011.87 1011.91 1012.36 1012.73 1012.96 1013.83 1014.39 1014.63 1015.10 1016.71 1016.62 1017.07 1017.14 1018.99 1019.88 1020.85 1021.54 1021.48 1022.36 1023.75 1024.38 1024.59 1024.40 1022.90 1019.34 1018.76 1019.01 1019.34 1018.53 1018.50 1017.23 1015.59
1009.56 1009.85 1010.15 1010.23 1010.56 1010.77 1010.76 1010.29 1010.22 1010.38 1011.05 1011.40 1011.92 1011.82 1011.75 1012.65 1013.36 1014.51 1014.88 1015.19 1015.23 1015.78 1016.69 1017.87 1019.29 1020.36 1021.22 1022.09 1022.73 1022.56 1021.99 1022.90 1023.74 1023.92 1023.27 1021.30 1018.62 1018.08 1018.17 1018.10 1016.00 1015.38 1015.71 1014.61
1008.66 1009.21 1009.58 1009.70 1009.95 1010.47 1010.80 1010.43 1009.72 1009.66 1010.25 1010.36 1010.84 1011.19 1011.46 1012.33 1013.54 1014.99 1015.83 1016.06 1015.70 1016.16 1016.89 1018.19 1018.83 1019.49 1020.17 1021.79 1022.74 1023.04 1022.76 1022.69 1022.76 1023.31 1022.45 1020.73 1017.70 1017.02 1016.86 1016.88 1015.49 1013.69 1014.46 1014.28
1008.02 1008.66 1009.33 1009.54 1009.83 1009.99 1010.47 1010.13 1009.46 1009.61 1010.04 1009.95 1009.99 1009.98 1010.70 1011.48 1012.86 1014.34 1015.86 1016.21 1016.85 1016.65 1016.76 1017.70 1018.10 1018.54 1019.01 1020.72 1021.85 1023.03 1023.37 1023.34 1022.82 1022.17 1021.16 1019.41 1016.91 1016.63 1016.62 1016.30 1014.38 1013.30 1013.59 1013.71
1007.52 1008.09 1008.97 1009.15 1009.23 1009.71 1010.18 1009.68 1009.37 1009.38 1010.26 1010.34 1009.72 1009.41 1009.70 1010.50 1011.30 1012.81 1015.06 1016.16 1016.70 1016.72 1016.34 1017.01 1017.31 1017.63 1018.25 1019.13 1019.85 1020.61 1020.76 1021.61 1022.02 1021.81 1020.79 1018.68 1015.82 1016.97 1016.14 1013.71 1013.31 1013.10 1013.30 1013.40
1006.91 1007.82 1008.49 1008.85 1009.09 1009.54 1009.88 1009.76 1009.15 1009.23 1010.17 1010.46 1009.94 1009.87 1009.61 1009.29 1009.48 1011.85 1013.51 1013.36 1014.09 1014.29 1015.16 1015.63 1016.26 1016.81 1017.52 1018.08 1019.24 1019.23 1019.09 1017.53 1018.44 1018.12 1016.71 1014.97 1014.78 1013.77 1013.30 1013.25 1013.29 1013.24 1013.24 1013.28
1006.60 1007.39 1008.02 1008.65 1008.96 1009.17 1009.59 1009.67 1009.31 1009.34 1009.94 1010.41 1010.52 1009.88 1009.67 1009.74 1009.56 1009.96 1011.91 1013.18 1013.05 1013.39 1013.11 1014.11 1015.12 1015.86 1016.38 1016.83 1017.05 1017.43 1017.42 1016.73 1016.89 1016.97 1015.15 1014.48 1013.86 1013.46 1013.64 1013.35 1013.20 1012.96 1013.01 1013.18
1005.96 1006.92 1007.70 1008.29 1008.81 1009.10 1009.30 1009.57 1009.14 1009.10 1009.73 1010.30 1010.06 1009.71 1009.71 1009.55 1009.74 1010.01 1010.62 1011.44 1012.49 1012.91 1013.25 1013.91 1014.87 1015.45 1015.13 1015.42 1015.30 1015.39 1015.37 1015.79 1016.04 1015.49 1014.47 1014.04 1013.38 1012.98 1012.86 1013.01 1012.76 1012.81 1013.13 1013.35
1005.61 1006.60 1007.43 1008.16 1008.63 1008.97 1009.31 1009.26 1009.02 1009.07 1009.40 1009.90 1010.32 1009.95 1009.70 1009.74 1009.76 1010.24 1010.88 1011.27 1012.13 1012.84 1013.86 1014.22 1014.68 1014.65 1014.86 1015.11 1015.00 1014.29 1013.94 1013.98 1014.24 1013.60 1012.50 1012.43 1012.16 1011.97 1012.26 1013.03 1013.09 1013.10 1013.10 1013.35
1005.43 1006.57 1007.30 1008.01 1008.41 1008.80 1009.23 1009.54 1009.32 1009.21 1009.47 1010.00 1010.39 1010.02 1010.21 1009.97 1009.94 1010.44 1010.83 1011.05 1011.88 1012.41 1012.98 1013.71 1013.85 1013.56 1013.57 1014.15 1013.36 1012.10 1012.02 1011.98 1011.65 1011.75 1012.00 1012.21 1012.37 1012.63 1012.97 1013.23 1013.33 1013.28 1013.61 1013.41
1005.33 1006.35 1007.06 1007.93 1008.42 1008.98 1009.44 1009.49 1009.69 1009.59 1009.96 1009.98 1010.52 1010.37 1010.29 1010.01 1010.20 1010.76 1010.90 1011.05 1011.57 1012.34 1013.07 1013.26 1013.39 1013.54 1012.99 1013.04 1012.14 1011.63 1011.40 1011.26 1011.66 1011.70 1012.05 1013.00 1013.19 1013.66 1014.13 1014.32 1014.50 1014.49 1014.42 1014.47
1005.44 1006.46 1007.37 1008.17 1008.58 1008.87 1009.24 1009.46 1009.06 1009.46 1009.61 1010.15 1010.00 1009.83 1010.13 1009.81 1010.01 1010.75 1010.86 1011.39 1011.81 1012.50 1012.75 1012.97 1012.94 1013.25 1013.22 1012.54 1011.06 1011.26 1011.22 1011.67 1012.12 1012.24 1012.57 1013.23 1014.03 1014.86 1015.48 1015.51 1015.73 1015.90 1016.23 1016.33
1005.88 1006.76 1007.74 1008.61 1009.25 1009.93 1009.99 1009.58 1009.56 1009.71 1010.34 1009.39 1009.16 1008.82 1009.32 1009.37 1009.64 1010.04 1010.79 1010.96 1011.91 1012.22 1012.42 1012.37 1012.59 1012.81 1012.46 1010.98 1011.78 1011.97 1012.01 1012.59 1012.70 1013.71 1013.98 1014.25 1014.98 1016.15 1016.58 1016.80 1017.01 1017.40 1017.73 1017.55
1006.51 1007.59 1008.77 1009.82 1010.18 1009.81 1009.67 1009.64 1010.00 1010.08 1009.67 1009.23 1008.32 1007.88 1008.58 1008.82 1009.42 1010.08 1010.66 1010.80 1011.24 1011.77 1011.70 1012.03 1012.22 1012.20 1011.35 1011.71 1012.63 1013.19 1013.62 1014.27 1014.33 1015.02 1016.12 1016.03 1016.61 1017.56 1018.14 1018.36 1018.37 1018.32 1019.13 1019.18
1007.39 1008.73 1009.74 1010.07 1009.82 1010.13 1010.33 1010.34 1010.34 1009.59 1008.91 1008.11 1007.84 1007.72 1008.10 1008.74 1008.97 1009.38 1009.69 1009.70 1010.23 1010.52 1010.94 1011.81 1012.59 1012.88 1012.51 1013.65 1014.77 1015.66 1015.92 1015.96 1016.11 1016.46 1016.97 1017.42 1017.27 1018.30 1018.92 1019.38 1019.35 1019.51 1019.63 1020.24
1007.33 1008.37 1009.59 1010.25 1010.77 1010.83 1011.15 1010.65 1009.95 1009.35 1008.33 1007.64 1007.23 1007.36 1007.57 1008.46 1008.58 1008.50 1008.92 1009.08 1009.48 1009.78 1010.32 1012.03 1013.03 1012.99 1015.00 1016.08 1017.24 1017.92 1018.03 1018.00 1018.07 1018.19 1018.34 1018.65 1019.11 1019.43 1019.51 1019.90 1020.35 1020.37 1020.48 1020.52
1008.04 1009.04 1010.74 1011.72 1012.28 1012.10 1011.50 1010.72 1009.89 1009.67 1008.18 1007.51 1007.14 1007.27 1007.28 1007.78 1007.82 1007.91 1008.24 1008.30 1008.75 1009.32 1010.92 1012.17 1013.31 1015.12 1016.86 1018.05 1018.94 1019.57 1019.97 1019.89 1019.55 1019.62 1019.76 1019.90 1020.21 1020.19 1020.33 1020.68 1020.91 1020.98 1020.93 1020.89
1009.78 1011.29 1012.66 1013.24 1013.16 1012.65 1011.61 1011.46 1010.66 1009.58 1008.63 1007.79 1007.12 1006.98 1006.95 1007.36 1007.58 1007.50 1007.88 1008.31 1008.90 1010.22 1011.80 1013.62 1014.73 1016.74 1018.65 1019.87 1020.45 1020.65 1021.17 1021.19 1021.00 1020.85 1020.86 1020.92 1021.18 1021.10 1021.01 1021.46 1021.48 1020.92 1021.09 1021.32
1011.01 1012.36 1013.53 1013.94 1013.02 1012.69 1012.01 1011.33 1010.77 1009.42 1008.53 1007.66 1007.26 1007.13 1007.16 1007.28 1007.75 1007.62 1008.13 1009.06 1009.63 1011.21 1013.37 1015.42 1017.15 1018.81 1020.40 1021.18 1021.19 1021.29 1021.60 1021.60 1021.98 1021.98 1022.13 1022.17 1021.83 1021.72 1021.88 1021.78 1021.72 1021.55 1021.60 1021.76
1011.74 1012.84 1013.73 1013.89 1013.88 1013.33 1012.54 1011.75 1010.72 1009.50 1008.62 1007.87 1007.34 1007.38 1007.33 1007.12 1007.61 1008.37 1009.22 1010.22 1011.61 1013.70 1015.50 1017.27 1019.04 1020.72 1021.63 1022.17 1022.23 1022.10 1022.33 1022.42 1022.48 1022.65 1022.70 1022.45 1022.28 1022.26 1022.42 1022.24 1022.09 1021.93 1022.07 1022.33
1012.75 1013.56 1013.40 1013.66 1013.70 1013.25 1012.62 1011.87 1011.12 1010.49 1009.90 1008.59 1007.92 1007.93 1008.12 1008.67 1009.24 1010.44 1011.68 1013.38 1014.76 1015.98 1017.98 1018.67 1020.43 1021.67 1022.43 1022.85 1022.75 1022.51 1022.46 1022.72 1022.76 1022.70 1022.86 1022.98 1023.10 1022.80 1022.65 1022.57 1022.70 1022.57 1022.65 1022.83
Wind_Speed
7 8 10 17 28 30 18 4 3 2 2 4 2 5 8 6 6 2 3 3 3 7 7 7 5 7 1 7 8 6 4 6 3 6 3 2 2 2 4 5 5 1 3 11
8 12 9 11 29 32 8 5 4 1 0 6 3 4 4 4 5 6 7 7 4 1 6 6 4 5 3 5 4 7 8 1 3 7 3 4 3 4 3 3 3 6 6 10
6 9 14 11 21 30 6 5 5 1 2 1 7 6 5 7 3 4 4 5 5 4 3 5 6 4 2 0 2 3 2 4 7 6 4 4 2 4 5 5 4 4 8 10
5 7 10 13 8 29 7 3 5 7 9 6 4 8 11 9 7 2 4 2 4 9 5 3 4 4 3 3 4 3 2 5 3 5 6 4 5 5 7 9 7 7 6 11
7 7 6 10 11 25 6 7 6 1 3 12 17 9 10 14 5 9 6 5 12 7 8 9 11 10 5 7 2 5 3 3 2 5 0 3 6 8 9 14 4 12 9 25
13 9 7 5 10 7 1 3 2 4 8 7 15 17 7 15 10 6 4 11 8 7 7 5 4 4 5 13 12 8 6 7 4 5 1 1 9 13 15 5 6 9 9 18
16 13 8 5 2 7 2 2 4 4 4 10 14 14 18 14 19 9 5 7 7 4 14 8 13 16 14 12 7 2 8 6 2 3 1 4 10 4 6 14 9 16 14 14
17 15 11 7 4 2 1 2 3 3 3 10 9 12 15 14 5 3 6 1 0 17 5 6 5 3 3 2 5 5 4 6 4 3 4 7 11 5 8 9 10 17 19 20
17 15 12 8 6 5 0 4 2 2 5 10 10 12 10 9 12 2 2 4 10 3 4 4 7 7 5 6 2 5 4 4 2 4 4 6 9 3 5 4 8 3 9 10
20 17 13 11 10 9 3 3 3 0 2 3 11 7 12 8 8 5 4 5 1 2 4 4 5 5 5 8 11 7 4 2 5 5 5 7 12 7 6 5 7 1 3 6
20 18 14 11 10 10 5 3 2 3 1 3 2 5 10 7 11 8 7 5 2 2 5 6 5 5 8 5 5 10 11 11 5 4 4 10 10 4 8 5 1 1 2 2
22 21 16 13 10 10 8 3 1 2 3 2 1 3 3 6 18 9 11 2 7 7 5 4 4 3 3 7 6 4 6 10 11 14 13 3 11 6 7 3 3 3 2 1
24 22 17 14 11 9 8 2 1 3 3 2 2 4 3 1 5 11 8 1 5 4 3 4 3 4 5 7 6 4 5 5 3 4 7 12 10 7 5 5 7 6 5 4
24 21 18 14 10 6 6 2 1 1 3 3 4 1 3 1 7 9 5 6 6 4 3 3 3 3 5 4 3 7 7 11 8 5 8 4 10 10 9 11 10 6 4 5
24 21 18 15 11 5 3 0 1 2 0 3 2 3 2 2 7 10 8 9 7 4 3 3 4 2 3 1 2 4 6 9 8 8 10 7 9 1 5 9 8 6 7 4
24 22 19 15 10 7 2 3 2 2 2 2 1 1 2 1 6 9 11 10 3 3 4 3 3 3 4 4 5 5 9 7 7 6 5 8 3 0 3 3 3 3 5 3
26 21 17 13 10 3 3 4 1 5 3 1 1 3 1 1 4 2 3 3 3 3 2 3 3 3 4 2 9 4 9 11 6 3 6 1 2 4 2 4 1 1 2 3
23 21 18 12 8 6 4 3 1 3 2 2 3 2 3 3 3 3 1 3 3 2 3 2 3 2 1 7 4 8 6 8 6 7 3 4 6 4 5 3 4 4 5 4
21 21 17 5 4 3 4 5 5 3 2 2 4 7 4 3 2 3 2 2 3 2 3 4 5 4 8 8 8 7 8 7 6 4 4 5 6 6 5 4 6 4 4 6
21 7 6 3 3 3 3 3 0 1 3 3 3 3 4 4 2 2 4 3 4 4 4 4 4 5 2 3 3 5 5 5 4 5 2 3 4 4 3 3 3 3 5 5
4 3 3 2 2 2 1 2 4 3 3 5 4 3 6 2 5 3 3 4 5 4 5 6 4 6 3 6 8 6 7 7 7 7 9 6 6 5 3 4 5 5 5 4
7 8 6 3 2 2 3 5 1 4 6 5 5 5 3 3 2 3 3 4 4 6 8 6 5 4 3 5 5 7 6 6 8 6 7 6 6 4 4 3 3 3 2 3
4 6 6 5 4 1 5 4 3 1 2 3 4 5 4 2 3 3 5 7 6 7 6 5 6 3 3 4 4 5 5 5 6 6 5 5 4 5 5 4 3 1 2 3
5 5 3 6 3 5 2 2 2 3 3 1 5 3 3 3 4 2 5 5 6 7 6 7 3 4 5 3 1 4 3 4 6 6 6 6 5 5 6 4 3 4 6 6
4 5 3 4 4 2 3 2 3 2 5 2 2 1 3 4 4 5 3 4 8 8 7 2 1 4 4 2 2 6 5 5 4 3 3 4 5 5 5 5 4 5 5 6
5 3 2 3 4 4 1 1 3 2 3 3 1 3 2 4 4 5 6 3 3 4 1 3 4 3 3 2 3 5 4 5 5 3 2 3 4 5 3 2 5 5 5 7
2 3 1 3 2 4 2 2 1 2 3 3 2 2 3 2 3 1 2 6 4 3 2 4 5 5 6 4 4 4 5 5 5 4 5 3 3 3 5 8 5 4 5 5
Wind_Direction
316 305 326 211 169 157 150 151 147 183 126 113 173 168 192 207 160 116 145 135 139 159 153 155 163 153 72 146 150 147 190 134 165 226 287 339 311 198 169 123 256 176 145 273
358 352 295 325 170 158 129 136 107 333 158 173 209 272 220 214 142 181 171 174 185 25 153 110 120 101 339 134 137 158 189 43 23 338 355 357 247 214 176 116 78 210 139 262
336 352 340 302 190 165 118 120 134 60 260 356 146 156 202 184 219 170 167 142 118 112 70 23 142 123 177 49 127 108 133 102 163 194 194 132 224 232 194 147 127 205 225 270
289 313 337 331 296 164 116 152 192 189 186 227 187 177 173 168 179 240 178 31 196 158 128 73 118 106 140 26 140 67 152 164 152 250 236 216 223 194 188 201 208 184 250 225
225 256 305 331 356 184 168 143 153 166 144 146 184 184 206 197 167 147 209 181 198 173 157 181 183 144 182 184 137 172 209 118 117 291 336 188 261 233 210 223 234 268 291 283
239 228 236 310 341 347 126 117 98 150 156 162 177 207 172 198 165 224 184 178 131 174 187 113 94 47 109 151 145 170 142 133 131 260 62 65 295 227 202 197 205 187 204 241
235 226 215 205 4 5 294 183 132 161 168 175 204 189 196 191 194 167 177 163 137 144 129 118 62 52 59 47 17 141 130 134 124 236 17 215 239 164 177 209 229 213 259 266
224 222 212 199 171 50 334 275 187 161 160 189 183 205 194 197 107 95 148 89 119 158 121 70 95 64 72 84 31 359 59 133 158 191 196 311 299 196 164 175 277 214 226 255
216 210 208 205 196 156 163 255 201 144 136 215 167 191 175 169 190 113 72 347 136 98 104 111 182 185 160 194 77 6 54 57 139 150 211 227 243 161 173 172 288 144 190 246
209 200 208 206 200 181 173 278 232 169 179 227 184 176 185 143 154 139 140 139 210 4 130 144 172 197 160 171 166 165 135 97 198 198 224 280 268 163 164 105 239 165 193 242
207 198 194 198 202 198 180 263 238 191 140 273 251 168 154 153 172 155 156 106 252 108 146 173 177 181 206 139 164 178 161 161 175 153 210 270 159 75 192 201 234 182 221 260
197 183 183 185 187 198 206 245 86 149 141 232 15 297 319 205 178 135 183 139 159 160 152 166 148 171 154 154 211 165 206 181 178 187 199 213 202 227 205 141 147 217 227 250
185 174 172 172 168 178 202 247 93 89 110 6 275 202 205 173 155 146 131 268 164 188 191 144 160 196 139 176 224 139 256 172 188 105 221 235 221 246 235 204 215 219 224 209
181 169 167 160 161 168 169 229 153 105 119 171 249 45 171 254 145 174 130 139 115 99 83 112 153 199 178 206 186 196 185 141 163 271 273 283 259 225 215 225 235 230 206 211
170 166 162 157 156 160 166 187 223 293 335 161 199 353 265 139 167 177 170 152 139 137 135 136 201 177 136 312 64 231 189 168 176 213 215 186 244 210 169 211 241 202 210 214
165 170 163 153 150 145 105 22 337 189 3 90 202 272 348 183 168 172 179 164 123 128 144 169 208 245 136 192 237 210 193 196 192 214 186 197 148 111 349 122 120 127 184 188
161 160 150 144 144 103 139 179 158 30 109 117 190 203 230 252 110 68 73 55 118 116 139 183 165 207 162 217 238 218 213 217 202 156 130 312 137 147 31 96 77 82 61 44
145 143 135 120 106 54 18 349 150 156 118 167 223 133 153 198 155 123 153 104 82 111 155 146 172 107 107 243 191 190 189 208 202 195 159 123 122 70 34 40 21 46 48 15
135 123 106 71 45 56 251 299 336 93 296 220 200 157 176 152 98 96 81 118 147 118 194 195 158 152 209 223 173 195 185 174 146 86 81 91 102 98 59 59 34 50 11 25
102 67 61 41 257 250 299 28 72 203 221 240 220 128 144 148 104 122 111 180 158 179 204 128 202 231 207 163 103 93 100 84 80 105 128 109 72 63 28 66 86 61 22 336
53 87 109 166 348 75 120 221 208 231 214 197 198 140 135 201 161 147 195 174 166 186 186 180 193 246 190 106 104 77 67 70 65 78 81 56 88 108 71 37 41 46 38 355
159 120 105 98 85 162 204 219 252 230 218 181 170 164 123 152 179 142 179 179 157 217 146 187 215 217 93 82 66 49 49 62 77 57 83 78 72 68 83 75 44 32 322 345
46 54 58 72 295 51 185 224 263 331 226 165 166 154 145 138 178 177 168 194 190 133 177 206 224 145 115 94 89 77 36 57 76 70 61 69 82 63 61 57 35 16 43 13
85 102 79 152 274 241 156 217 277 295 277 209 157 106 151 151 176 173 171 212 150 189 189 220 211 158 132 113 108 124 89 71 81 78 80 78 79 84 66 49 12 44 42 11
100 83 191 222 234 244 222 252 291 217 285 279 132 92 202 160 192 191 173 219 182 186 206 271 30 95 112 97 82 100 94 83 64 50 78 92 93 90 75 47 44 51 53 42
82 60 96 284 62 300 327 230 273 350 296 282 217 155 202 221 186 189 204 123 214 191 196 148 104 105 106 125 115 108 105 99 101 82 68 65 70 94 106 52 46 53 60 61
122 246 62 141 135 194 220 195 220 328 302 256 162 199 208 74 52 122 166 187 214 168 124 98 126 146 153 152 117 101 105 98 94 92 67 51 44 55 64 63 20 38 54 72